Starlink 32604

operational
NORAD ID: 62070 Int'l Des: 2024-217 Owner: SPXS Country: US Constellation: starlink
LEOCIRCULAR

Über Starlink 32604

Beschreibung wird geladen...

Live-Position

3D-Globus wird geladen...

Nächste Überflüge

Höhenverlauf

Altitude vs Time

uPlot chart will show altitude changes over time

Zweizeiliger Elementsatz

1 62070U 24217P 25258.35891400 .00046300 00000-0 15633-2 0 9996
2 62070 53.1589 288.5605 0001771 85.3866 274.7337 15.30248603 46571
Epoch: 15. Sept. 2025 • Age: 14 hours

Aktueller Status

Höhe 475.0 km
Geschwindigkeit 7.63 km/s
Subsatellitenpunkt 22.19°N, 34.29°W
Startdatum 24. Nov. 2024
Alter 0.8 years
Typ internet

Technische Details

Klassifizierung Payload
Masse 730.00 kg
Trockenmasse 700.00 kg
Gesamtmasse 730.00 kg
Länge 0.30 m
Durchmesser 4.10 m
Spannweite 29.00 m
Form Box + pan
Hersteller SPXS
Bus-Typ Starlink V2M
Phasenstatus In Orbit
Besitzer/Staat SPXS/US

Große Konstellationen

Loading constellations...